Meteo orario Ababuj

Oggi, 9 Marzo, Martedi

Tempo Temperatura Precipitazioni Vento Pressione Umidità
00:00 0°C° 0 mm 1 m/s 644 mm Hg 91%
01:00 0°C° 0 mm 1 m/s 644 mm Hg 90%
02:00 -2°C° 0 mm 2 m/s 644 mm Hg 89%
03:00 -2°C° 0 mm 2 m/s 644 mm Hg 87%
04:00 -2°C° 0 mm 2 m/s 644 mm Hg 88%
05:00 -3°C° 0 mm 2 m/s 643 mm Hg 89%
06:00 -3°C° 0 mm 2 m/s 643 mm Hg 90%
07:00 -2°C° 0 mm 3 m/s 644 mm Hg 84%
08:00 0°C° 0 mm 3 m/s 645 mm Hg 78%
09:00 0°C° 0 mm 4 m/s 645 mm Hg 73%
10:00 +1°C° 0 mm 4 m/s 645 mm Hg 68%
11:00 +3°C° 0 mm 4 m/s 645 mm Hg 64%
12:00 +4°C° 0 mm 3 m/s 645 mm Hg 59%
13:00 +4°C° 0 mm 3 m/s 645 mm Hg 58%
14:00 +4°C° 0 mm 4 m/s 645 mm Hg 57%
15:00 +5°C° 0 mm 4 m/s 645 mm Hg 56%
16:00 +4°C° 0 mm 3 m/s 644 mm Hg 61%
17:00 +3°C° 0 mm 3 m/s 644 mm Hg 66%
18:00 +2°C° 0 mm 3 m/s 644 mm Hg 72%
19:00 +1°C° 0 mm 2 m/s 644 mm Hg 77%
20:00 -1°C° 0 mm 2 m/s 644 mm Hg 82%
21:00 0°C° 0 mm 1 m/s 645 mm Hg 87%
22:00 0°C° 0 mm 1 m/s 645 mm Hg 86%
23:00 0°C° 0 mm 1 m/s 645 mm Hg 86%

Domani, 10 Marzo, Mercoledi

Tempo Temperatura Precipitazioni Vento Pressione Umidità
00:00 -1°C° 0 mm 1 m/s 645 mm Hg 85%
01:00 -1°C° 0 mm 1 m/s 645 mm Hg 86%
02:00 -1°C° 0 mm 1 m/s 645 mm Hg 86%
03:00 -1°C° 0 mm 1 m/s 645 mm Hg 86%
04:00 -1°C° 0 mm 1 m/s 645 mm Hg 81%
05:00 -2°C° 0 mm 1 m/s 645 mm Hg 77%
06:00 -2°C° 0 mm 1 m/s 646 mm Hg 73%
07:00 0°C° 0 mm 1 m/s 647 mm Hg 61%
08:00 +2°C° 0 mm 1 m/s 648 mm Hg 49%
09:00 +4°C° 0 mm 1 m/s 649 mm Hg 37%
10:00 +6°C° 0 mm 1 m/s 649 mm Hg 33%
11:00 +6°C° 0 mm 2 m/s 649 mm Hg 29%
12:00 +8°C° 0 mm 2 m/s 650 mm Hg 25%
13:00 +9°C° 0 mm 2 m/s 650 mm Hg 24%
14:00 +9°C° 0 mm 2 m/s 650 mm Hg 24%
15:00 +10°C° 0 mm 3 m/s 650 mm Hg 23%
16:00 +8°C° 0 mm 2 m/s 649 mm Hg 28%
17:00 +7°C° 0 mm 1 m/s 648 mm Hg 33%
18:00 +5°C° 0 mm 1 m/s 648 mm Hg 39%
19:00 +4°C° 0 mm 1 m/s 648 mm Hg 39%
20:00 +4°C° 0 mm 1 m/s 649 mm Hg 40%
21:00 +3°C° 0 mm 1 m/s 649 mm Hg 41%
22:00 +3°C° 0 mm 1 m/s 649 mm Hg 45%
23:00 +3°C° 0 mm 1 m/s 649 mm Hg 49%

Dopodomani, 11 Marzo, Giovedi

Tempo Temperatura Precipitazioni Vento Pressione Umidità
00:00 +2°C° 0 mm 1 m/s 649 mm Hg 54%
01:00 +2°C° 0 mm 1 m/s 648 mm Hg 52%
02:00 +2°C° 0 mm 1 m/s 648 mm Hg 50%
03:00 +2°C° 0 mm 1 m/s 648 mm Hg 49%
04:00 +2°C° 0 mm 1 m/s 648 mm Hg 47%
05:00 +3°C° 0 mm 1 m/s 648 mm Hg 46%
06:00 +2°C° 0 mm 2 m/s 648 mm Hg 45%
07:00 +4°C° 0 mm 2 m/s 649 mm Hg 42%
08:00 +6°C° 0 mm 2 m/s 650 mm Hg 40%
09:00 +9°C° 0 mm 3 m/s 651 mm Hg 38%
10:00 +10°C° 0 mm 3 m/s 651 mm Hg 39%
11:00 +11°C° 0 mm 3 m/s 651 mm Hg 40%
12:00 +12°C° 0 mm 3 m/s 652 mm Hg 41%
13:00 +13°C° 0 mm 3 m/s 651 mm Hg 42%
14:00 +13°C° 0 mm 3 m/s 651 mm Hg 44%
15:00 +14°C° 0 mm 3 m/s 651 mm Hg 45%
16:00 +12°C° 0 mm 3 m/s 650 mm Hg 52%
17:00 +11°C° 0 mm 3 m/s 650 mm Hg 58%
18:00 +9°C° 0 mm 3 m/s 649 mm Hg 65%
19:00 +8°C° 0 mm 3 m/s 649 mm Hg 69%
20:00 +7°C° 0 mm 2 m/s 649 mm Hg 74%
21:00 +6°C° 0 mm 2 m/s 649 mm Hg 79%
22:00 +5°C° 0 mm 2 m/s 649 mm Hg 80%
23:00 +5°C° 0 mm 2 m/s 649 mm Hg 82%

12 Marzo, Venerdi

Tempo Temperatura Precipitazioni Vento Pressione Umidità
00:00 +5°C° 0 mm 1 m/s 648 mm Hg 83%
01:00 +5°C° 0 mm 1 m/s 648 mm Hg 83%
02:00 +5°C° 0 mm 1 m/s 647 mm Hg 84%
03:00 +5°C° 0 mm 1 m/s 647 mm Hg 84%
04:00 +4°C° 0 mm 1 m/s 647 mm Hg 85%
05:00 +4°C° 0 mm 1 m/s 647 mm Hg 85%
06:00 +4°C° 0 mm 1 m/s 647 mm Hg 86%
07:00 +4°C° 0 mm 2 m/s 648 mm Hg 81%
08:00 +6°C° 0 mm 2 m/s 648 mm Hg 77%
09:00 +7°C° 0 mm 3 m/s 649 mm Hg 72%
10:00 +7°C° 0 mm 4 m/s 649 mm Hg 68%
11:00 +8°C° 0 mm 4 m/s 649 mm Hg 64%
12:00 +8°C° 0 mm 5 m/s 649 mm Hg 59%
13:00 +8°C° 0 mm 5 m/s 649 mm Hg 57%
14:00 +8°C° 0 mm 5 m/s 649 mm Hg 55%
15:00 +8°C° 0 mm 6 m/s 648 mm Hg 53%
16:00 +7°C° 0 mm 5 m/s 648 mm Hg 59%
17:00 +5°C° 0 mm 4 m/s 648 mm Hg 65%
18:00 +4°C° 0 mm 4 m/s 648 mm Hg 71%
19:00 +3°C° 0 mm 3 m/s 648 mm Hg 76%
20:00 +2°C° 0 mm 3 m/s 648 mm Hg 82%
21:00 +2°C° 0 mm 2 m/s 648 mm Hg 87%
22:00 +1°C° 0 mm 2 m/s 648 mm Hg 87%
23:00 +1°C° 0 mm 2 m/s 648 mm Hg 87%

13 Marzo, Sabato

Tempo Temperatura Precipitazioni Vento Pressione Umidità
00:00 +2°C° 0 mm 1 m/s 648 mm Hg 87%
01:00 +1°C° 0 mm 1 m/s 648 mm Hg 87%
02:00 0°C° 0 mm 1 m/s 648 mm Hg 88%
03:00 -1°C° 0 mm 1 m/s 647 mm Hg 88%
04:00 0°C° 0 mm 1 m/s 647 mm Hg 86%
05:00 0°C° 0 mm 1 m/s 647 mm Hg 84%
06:00 0°C° 0 mm 1 m/s 647 mm Hg 82%
07:00 +2°C° 0 mm 1 m/s 648 mm Hg 72%
08:00 +3°C° 0 mm 2 m/s 649 mm Hg 62%
09:00 +5°C° 0 mm 2 m/s 650 mm Hg 53%
10:00 +6°C° 0 mm 2 m/s 650 mm Hg 47%
11:00 +7°C° 0 mm 3 m/s 650 mm Hg 42%
12:00 +8°C° 0 mm 4 m/s 650 mm Hg 37%
13:00 +9°C° 0 mm 3 m/s 650 mm Hg 35%
14:00 +10°C° 0 mm 3 m/s 649 mm Hg 33%
15:00 +11°C° 0 mm 3 m/s 649 mm Hg 31%
16:00 +9°C° 0 mm 3 m/s 648 mm Hg 37%
17:00 +8°C° 0 mm 3 m/s 648 mm Hg 42%
18:00 +7°C° 0 mm 3 m/s 648 mm Hg 48%
19:00 +5°C° 0 mm 3 m/s 648 mm Hg 53%
20:00 +4°C° 0 mm 2 m/s 648 mm Hg 59%
21:00 +3°C° 0 mm 2 m/s 648 mm Hg 64%
22:00 +2°C° 0 mm 2 m/s 648 mm Hg 66%
23:00 +2°C° 0 mm 2 m/s 647 mm Hg 68%

14 Marzo, Domenica

Tempo Temperatura Precipitazioni Vento Pressione Umidità
00:00 +1°C° 0 mm 2 m/s 647 mm Hg 70%
01:00 +1°C° 0 mm 2 m/s 647 mm Hg 73%
02:00 +1°C° 0 mm 2 m/s 647 mm Hg 75%
03:00 -1°C° 0 mm 2 m/s 647 mm Hg 78%
04:00 -1°C° 0 mm 2 m/s 647 mm Hg 80%
05:00 -1°C° 0 mm 3 m/s 647 mm Hg 83%
06:00 -1°C° 0 mm 3 m/s 647 mm Hg 85%
07:00 -1°C° 0 mm 5 m/s 648 mm Hg 78%
08:00 +1°C° 0 mm 6 m/s 648 mm Hg 70%
09:00 +2°C° 0 mm 8 m/s 649 mm Hg 63%
10:00 +2°C° 0 mm 8 m/s 649 mm Hg 64%
11:00 +4°C° 0 mm 8 m/s 649 mm Hg 64%
12:00 +4°C° 0 mm 8 m/s 649 mm Hg 65%
13:00 +4°C° 0 mm 8 m/s 649 mm Hg 64%
14:00 +5°C° 0 mm 9 m/s 649 mm Hg 63%
15:00 +5°C° 0 mm 9 m/s 649 mm Hg 62%
16:00 +4°C° 0 mm 8 m/s 649 mm Hg 67%
17:00 +2°C° 0 mm 8 m/s 648 mm Hg 72%
18:00 +1°C° 0 mm 8 m/s 648 mm Hg 77%
19:00 +1°C° 0 mm 6 m/s 648 mm Hg 81%
20:00 0°C° 0 mm 5 m/s 649 mm Hg 85%
21:00 -1°C° 0 mm 4 m/s 649 mm Hg 90%
22:00 -1°C° 0 mm 4 m/s 649 mm Hg 90%
23:00 -2°C° 0 mm 4 m/s 649 mm Hg 90%
Mostrare altro

Abbiamo bisogno del tuo consenso

Meteoprog e i nostri fornitori di servizi possono memorizzare e accedere a dati personali come cookie, identificatori di dispositivi o altre tecnologie simili sul tuo dispositivo e possono elaborare tali dati per personalizzare i contenuti e gli annunci, nonché fornire funzionalità dei social media e analizzarne il traffico.

  • Archiviare e/o accedere alle informazioni sul tuo dispositivo

    Cookie, identificatori di dispositivi o altre informazioni possono essere memorizzati o resi accessibili sul tuo dispositivo per le finalità sopra indicate.

  • Annunci e contenuti personalizzati, misurazione di annunci e contenuti, approfondimenti sul pubblico e sviluppo di prodotti

    Gli annunci e i contenuti possono essere personalizzati in base a un profilo. È possibile aggiungere più dati per personalizzare meglio annunci e contenuti. È possibile misurare il rendimento degli annunci e dei contenuti. È possibile ricavare informazioni sul pubblico che ha visto gli annunci e i contenuti. Tali dati possono essere utilizzati per sviluppare o migliorare l'esperienza, i sistemi e il software dell'utente.

Cliccando su “Accetto”, acconsenti all'uso di cookie, identificatori di dispositivo, web beacon o altre tecnologie simili. Puoi modificare le impostazioni nel browser del tuo dispositivo.

Per determinati scopi, è possibile fare affidamento su interessi legali, piuttosto che sul consenso. Puoi approfondire questo argomento consultando la nostra Informativa sulla privacy e sui cookie.